Indianapolis, IN

12:57 AM EST on December 07, 2019 (GMT -0500)
Indianapolis Terry

Weather History for KTYQ - May, 2019

Change the Weather History Date:

Thursday, May 23, 2019

  Actual Average (KEYE) Record (KEYE)
Temperature  
Mean Temperature 70 °F -  
Max Temperature 78 °F 69 °F 88 °F (2007)
Min Temperature 63 °F 52 °F 43 °F (1997)
Cooling Degree Days 6    
Growing Degree Days 20 (Base 50)    
Moisture  
Dew Point 68 °F    
Average Humidity 92    
Maximum Humidity 100    
Minimum Humidity 79    
Precipitation  
Precipitation 0.30 in - - ()
Sea Level Pressure  
Sea Level Pressure 30.06 in    
Wind  
Wind Speed 10 mph ()    
Max Wind Speed 21 mph    
Max Gust Speed 50 mph    
Visibility 9.7 miles    
Events Rain , Thunderstorm    
Averages and records for this station are not official NWS values.
T = Trace of Precipitation, MM = Missing Value Source: Averaged Metar Reports

Daily Weather History Graph

Daily Weather History Graph

Search for Another Location

Airport or City:

Astronomy

May. 23, 2019 Rise Set
Actual Time 6:23 AM EDT 9:00 PM EDT
Civil Twilight 5:51 AM EDT 9:32 PM EDT
Nautical Twilight 5:12 AM EDT 10:11 PM EDT
Astronomical Twilight 4:28 AM EDT 10:55 PM EDT
Moon 12:43 AM EDT (5/23) 10:26 AM EDT (5/23)
Length of Visible Light 15h 40m
Length of Day
14h 37m
Waning Gibbous, 77% of the Moon is Illuminated
May 23
Waning Gibbous
May 26
Last Quarter
Jun 3
New
Jun 10
First Quarter
Jun 17
Full

Hourly Weather History & Observations

Time (EDT) Temp. Dew Point Humidity Pressure Visibility Wind Dir Wind Speed Gust Speed Precip Events Conditions
12:15 AM 66.6 °F 66.6 °F 100% 30.02 in 10.0 mi South 8.1 mph - N/A   Clear
12:35 AM 66.2 °F 66.2 °F 100% 30.02 in 10.0 mi South 8.1 mph - N/A   Clear
12:55 AM 66.6 °F 66.6 °F 100% 30.02 in 10.0 mi South 9.2 mph - N/A   Clear
1:15 AM 66.7 °F 66.7 °F 100% 30.03 in 10.0 mi South 8.1 mph - N/A   Clear
1:35 AM 67.1 °F 66.7 °F 99% 30.00 in 10.0 mi South 10.4 mph - N/A   Clear
1:55 AM 66.7 °F 66.7 °F 100% 30.00 in 10.0 mi South 9.2 mph - N/A   Clear
2:15 AM 66.6 °F 66.6 °F 100% 29.99 in 10.0 mi South 8.1 mph - N/A   Clear
2:35 AM 67.1 °F 67.1 °F 100% 29.99 in 10.0 mi South 9.2 mph - N/A   Scattered Clouds
2:55 AM 67.3 °F 67.3 °F 100% 29.99 in 10.0 mi South 9.2 mph 16.1 mph N/A   Scattered Clouds
3:15 AM 67.5 °F 67.5 °F 100% 29.99 in 10.0 mi South 9.2 mph - N/A   Clear
3:35 AM 67.5 °F 67.5 °F 100% 29.98 in 10.0 mi South 10.4 mph - N/A   Clear
3:55 AM 67.6 °F 67.6 °F 100% 29.98 in 10.0 mi South 11.5 mph - N/A   Clear
4:15 AM 68.0 °F 68.0 °F 100% 29.99 in 10.0 mi South 11.5 mph 16.1 mph N/A   Clear
4:35 AM 68.0 °F 68.0 °F 100% 29.99 in 10.0 mi SSW 9.2 mph - N/A   Clear
4:55 AM 68.7 °F 68.7 °F 100% 30.02 in 10.0 mi SSW 10.4 mph - N/A   Scattered Clouds
5:15 AM 64.4 °F 64.2 °F 99% 30.07 in 3.0 mi West 20.7 mph 49.5 mph 0.08 in Rain , Thunderstorm Heavy Thunderstorms and Rain
5:35 AM 63.5 °F 63.5 °F 100% 30.05 in 7.0 mi West 11.5 mph 21.9 mph 0.11 in Rain , Thunderstorm Rain
5:55 AM 63.1 °F 63.1 °F 100% 30.07 in 7.0 mi West 11.5 mph 23.0 mph 0.14 in Rain , Thunderstorm Rain
6:15 AM 63.5 °F 63.5 °F 100% 30.07 in 7.0 mi WSW 12.7 mph 23.0 mph 0.05 in Rain , Thunderstorm Rain
6:35 AM 63.3 °F 63.3 °F 100% 30.05 in 10.0 mi WSW 6.9 mph 16.1 mph 0.07 in Rain , Thunderstorm Light Thunderstorms and Rain
6:55 AM 63.0 °F 63.0 °F 100% 30.07 in 10.0 mi SW 9.2 mph - 0.08 in Rain , Thunderstorm Rain
7:15 AM 63.9 °F 63.9 °F 100% 30.08 in 7.0 mi WSW 15.0 mph 23.0 mph 0.04 in Rain Rain
7:35 AM 63.5 °F 63.5 °F 100% 30.08 in 7.0 mi SSW 15.0 mph 19.6 mph 0.07 in Rain Rain
7:55 AM 63.7 °F 63.7 °F 100% 30.06 in 10.0 mi SSW 16.1 mph 23.0 mph 0.08 in   Light Drizzle
8:15 AM 64.4 °F 64.4 °F 100% 30.06 in 10.0 mi SW 15.0 mph 19.6 mph N/A   Mostly Cloudy
8:35 AM 65.5 °F 64.6 °F 97% 30.07 in 10.0 mi SW 13.8 mph 20.7 mph N/A   Scattered Clouds
8:55 AM 65.8 °F 64.8 °F 96% 30.07 in 10.0 mi SSW 13.8 mph 24.2 mph N/A   Scattered Clouds
9:15 AM 66.2 °F 64.8 °F 95% 30.07 in 10.0 mi SW 15.0 mph - N/A   Mostly Cloudy
9:35 AM 67.1 °F 65.1 °F 93% 30.07 in 10.0 mi SW 12.7 mph - N/A   Scattered Clouds
9:55 AM 68.5 °F 66.4 °F 93% 30.06 in 10.0 mi SW 12.7 mph - N/A   Scattered Clouds
10:15 AM 70.9 °F 67.5 °F 89% 30.06 in 10.0 mi SW 10.4 mph 13.8 mph N/A   Scattered Clouds
10:35 AM 72.0 °F 67.6 °F 86% 30.06 in 10.0 mi SW 11.5 mph 17.3 mph N/A   Clear
10:55 AM 73.4 °F 68.7 °F 85% 30.07 in 10.0 mi SW 13.8 mph 19.6 mph N/A   Scattered Clouds
11:15 AM 74.3 °F 68.9 °F 83% 30.07 in 10.0 mi SW 16.1 mph 19.6 mph N/A   Clear
11:35 AM 74.8 °F 68.4 °F 80% 30.08 in 10.0 mi SW 17.3 mph 23.0 mph N/A   Scattered Clouds
11:55 AM 75.9 °F 68.9 °F 79% 30.07 in 10.0 mi WSW 17.3 mph 24.2 mph N/A   Mostly Cloudy
12:15 PM 75.2 °F 69.3 °F 82% 30.07 in 10.0 mi WSW 17.3 mph 27.6 mph N/A   Mostly Cloudy
12:35 PM 76.5 °F 70.7 °F 82% 30.07 in 10.0 mi SW 18.4 mph 25.3 mph N/A   Scattered Clouds
12:55 PM 75.2 °F 70.5 °F 85% 30.08 in 10.0 mi WSW 20.7 mph 27.6 mph N/A   Mostly Cloudy
1:15 PM 75.2 °F 71.2 °F 87% 30.08 in 10.0 mi SW 15.0 mph 23.0 mph N/A   Mostly Cloudy
1:35 PM 76.1 °F 71.6 °F 86% 30.07 in 10.0 mi WSW 15.0 mph 23.0 mph N/A   Overcast
1:55 PM 75.6 °F 71.8 °F 88% 30.08 in 10.0 mi SW 17.3 mph 26.5 mph N/A   Overcast
2:15 PM 75.7 °F 71.1 °F 85% 30.08 in 10.0 mi SW 20.7 mph 25.3 mph N/A   Overcast
2:35 PM 76.6 °F 71.4 °F 84% 30.08 in 10.0 mi WSW 15.0 mph 25.3 mph N/A   Overcast
2:55 PM 76.5 °F 72.3 °F 87% 30.07 in 10.0 mi WSW 17.3 mph 20.7 mph N/A   Overcast
3:15 PM 76.1 °F 72.0 °F 87% 30.06 in 10.0 mi WSW 15.0 mph 25.3 mph N/A   Overcast
3:35 PM 76.1 °F 71.6 °F 86% 30.06 in 10.0 mi West 16.1 mph 20.7 mph N/A   Overcast
3:55 PM 78.1 °F 72.1 °F 82% 30.06 in 10.0 mi West 16.1 mph 24.2 mph N/A   Overcast
4:15 PM 77.5 °F 72.0 °F 83% 30.06 in 10.0 mi West 15.0 mph 24.2 mph N/A   Overcast
4:35 PM 77.2 °F 72.5 °F 85% 30.06 in 10.0 mi West 10.4 mph 19.6 mph N/A   Overcast
4:55 PM 77.9 °F 72.5 °F 83% 30.06 in 10.0 mi West 12.7 mph - N/A   Overcast
5:15 PM 77.5 °F 71.4 °F 81% 30.06 in 10.0 mi West 15.0 mph 23.0 mph N/A   Overcast
5:35 PM 77.0 °F 70.9 °F 81% 30.06 in 10.0 mi West 12.7 mph 23.0 mph N/A   Overcast
5:55 PM 76.8 °F 71.1 °F 82% 30.07 in 10.0 mi WNW 6.9 mph 17.3 mph N/A   Overcast
6:15 PM 76.5 °F 71.4 °F 84% 30.07 in 10.0 mi WNW 9.2 mph - N/A   Mostly Cloudy
6:35 PM 76.1 °F 71.4 °F 85% 30.07 in 10.0 mi WNW 8.1 mph - N/A   Overcast
6:55 PM 75.9 °F 71.6 °F 86% 30.07 in 10.0 mi West 9.2 mph 16.1 mph N/A   Mostly Cloudy
7:15 PM 76.1 °F 71.2 °F 85% 30.07 in 10.0 mi West 12.7 mph 18.4 mph N/A   Scattered Clouds
7:35 PM 75.7 °F 70.7 °F 84% 30.07 in 10.0 mi West 13.8 mph 19.6 mph N/A   Clear
7:55 PM 75.2 °F 70.3 °F 85% 30.07 in 10.0 mi West 8.1 mph - N/A   Clear
8:15 PM 74.5 °F 70.5 °F 87% 30.07 in 10.0 mi WNW 5.8 mph - N/A   Clear
8:35 PM 73.6 °F 70.2 °F 89% 30.08 in 10.0 mi WNW 5.8 mph - N/A   Clear
8:55 PM 72.5 °F 70.0 °F 92% 30.08 in 10.0 mi WNW 5.8 mph - N/A   Clear
9:15 PM 71.2 °F 69.1 °F 93% 30.08 in 10.0 mi WNW 3.5 mph - N/A   Clear
9:35 PM 70.5 °F 68.9 °F 95% 30.08 in 10.0 mi WNW 3.5 mph - N/A   Clear
9:55 PM 69.1 °F 68.4 °F 98% 30.09 in 10.0 mi WNW 3.5 mph - N/A   Clear
10:15 PM 68.5 °F 68.2 °F 99% 30.10 in 10.0 mi NW 4.6 mph - N/A   Clear
10:35 PM 68.0 °F 67.5 °F 98% 30.10 in 10.0 mi NNW 3.5 mph - N/A   Clear
10:55 PM 66.7 °F 66.7 °F 100% 30.11 in 10.0 mi Calm Calm - N/A   Clear
11:15 PM 66.7 °F 66.2 °F 98% 30.12 in 10.0 mi NNW 5.8 mph - N/A   Clear
11:35 PM 65.7 °F 64.6 °F 96% 30.12 in 10.0 mi NNW 4.6 mph - N/A   Clear
11:55 PM 65.3 °F 63.7 °F 94% 30.11 in 10.0 mi NNW 4.6 mph - N/A   Clear